| time (UTC) | temp C | wind direction | speed KPH | gust KPH | rain 1hr cm | rain 24hr cm | rain mn cm | humidity % | barometer mb |
| 20260503050503 | 11 | 45 | 1.6 | 3.2 | 0.00 | 0.00 | 0.00 | 61 | 1010.7 |
| 20260503050000 | 11 | 135 | 1.6 | 3.2 | 0.00 | 0.00 | 0.00 | 62 | 1010.5 |
| 20260503045457 | 11 | 132 | 1.6 | 4.8 | 0.00 | 0.00 | 0.00 | 61 | 1010.7 |
| 20260503044954 | 11 | 227 | 0.0 | 1.6 | 0.00 | 0.00 | 0.00 | 64 | 1010.8 |
| 20260503044451 | 11 | 198 | 1.6 | 4.8 | 0.00 | 0.00 | 0.00 | 65 | 1010.8 |
| 20260503043949 | 10 | 147 | 0.0 | 3.2 | 0.00 | 0.00 | 0.00 | 66 | 1010.8 |
| 20260503043444 | 10 | 164 | 0.0 | 4.8 | 0.00 | 0.00 | 0.00 | 67 | 1010.9 |
| 20260503042941 | 10 | 217 | 0.0 | 3.2 | 0.00 | 0.00 | 0.00 | 68 | 1011.0 |
| 20260503042438 | 10 | 174 | 0.0 | 3.2 | 0.00 | 0.00 | 0.00 | 69 | 1011.0 |
| 20260503041935 | 10 | 66 | 0.0 | 1.6 | 0.00 | 0.00 | 0.00 | 67 | 1011.1 |
| 20260503041431 | 10 | 147 | 0.0 | 1.6 | 0.00 | 0.00 | 0.00 | 67 | 1010.9 |
| 20260503040929 | 10 | 113 | 0.0 | 1.6 | 0.00 | 0.00 | 0.00 | 67 | 1011.1 |
| 20260503040426 | 10 | 130 | 0.0 | 3.2 | 0.00 | 0.00 | 0.00 | 67 | 1011.2 |
| 20260503035923 | 10 | 116 | 0.0 | 3.2 | 0.00 | 0.00 | 0.00 | 66 | 1011.2 |
| 20260503035420 | 10 | 122 | 1.6 | 3.2 | 0.00 | 0.00 | 0.00 | 64 | 1011.4 |
| 20260503034918 | 10 | 147 | 0.0 | 3.2 | 0.00 | 0.00 | 0.00 | 65 | 1011.4 |
| 20260503034415 | 10 | 128 | 0.0 | 3.2 | 0.00 | 0.00 | 0.00 | 67 | 1011.5 |
| 20260503033912 | 10 | 186 | 0.0 | 1.6 | 0.00 | 0.00 | 0.00 | 65 | 1011.7 |
| 20260503033409 | 10 | 142 | 0.0 | 3.2 | 0.00 | 0.00 | 0.00 | 66 | 1011.7 |
| 20260503032907 | 10 | 336 | 0.0 | 0.0 | 0.00 | 0.00 | 0.00 | 63 | 1011.8 |
| 20260503032406 | 10 | 135 | 0.0 | 1.6 | 0.00 | 0.00 | 0.00 | 62 | 1011.7 |
| 20260503031903 | 10 | 304 | 0.0 | 1.6 | 0.00 | 0.00 | 0.00 | 62 | 1011.8 |
| 20260503031401 | 10 | 133 | 0.0 | 1.6 | 0.00 | 0.00 | 0.00 | 63 | 1011.9 |
| 20260503030856 | 10 | 185 | 0.0 | 0.0 | 0.00 | 0.00 | 0.00 | 63 | 1012.0 |
| 20260503030353 | 10 | 185 | 0.0 | 3.2 | 0.00 | 0.00 | 0.00 | 64 | 1012.0 |
| 20260503025850 | 10 | 75 | 0.0 | 3.2 | 0.00 | 0.00 | 0.00 | 64 | 1011.8 |
| 20260503025347 | 10 | 269 | 3.2 | 4.8 | 0.00 | 0.00 | 0.00 | 64 | 1012.0 |
| 20260503024845 | 10 | 335 | 0.0 | 3.2 | 0.00 | 0.00 | 0.00 | 63 | 1012.2 |
| 20260503024341 | 10 | 164 | 0.0 | 3.2 | 0.00 | 0.00 | 0.00 | 63 | 1012.2 |
| 20260503023838 | 10 | 158 | 0.0 | 1.6 | 0.00 | 0.00 | 0.00 | 63 | 1012.0 |
| 20260503023335 | 10 | 135 | 0.0 | 0.0 | 0.00 | 0.00 | 0.00 | 64 | 1012.1 |
| 20260503022831 | 10 | 135 | 0.0 | 1.6 | 0.00 | 0.00 | 0.00 | 62 | 1012.0 |
| 20260503022326 | 10 | 186 | 0.0 | 3.2 | 0.00 | 0.00 | 0.00 | 61 | 1012.2 |
| 20260503021823 | 10 | 195 | 0.0 | 1.6 | 0.00 | 0.00 | 0.00 | 63 | 1012.2 |
| 20260503021319 | 10 | 315 | 0.0 | 1.6 | 0.00 | 0.00 | 0.00 | 64 | 1012.1 |
| 20260503020817 | 10 | 157 | 0.0 | 1.6 | 0.00 | 0.00 | 0.00 | 64 | 1012.1 |
| 20260503020315 | 10 | 217 | 0.0 | 1.6 | 0.00 | 0.00 | 0.00 | 63 | 1012.2 |
| 20260503015811 | 11 | 217 | 0.0 | 1.6 | 0.00 | 0.00 | 0.00 | 62 | 1012.2 |
| 20260503015308 | 11 | 172 | 0.0 | 3.2 | 0.00 | 0.00 | 0.00 | 59 | 1012.1 |
| 20260503014803 | 11 | 210 | 0.0 | 1.6 | 0.00 | 0.00 | 0.00 | 58 | 1012.2 |
| 20260503014302 | 11 | 193 | 0.0 | 0.0 | 0.00 | 0.00 | 0.00 | 56 | 1012.1 |
| 20260503013758 | 11 | 145 | 0.0 | 1.6 | 0.00 | 0.00 | 0.00 | 55 | 1012.1 |
| 20260503013256 | 12 | 168 | 0.0 | 0.0 | 0.00 | 0.00 | 0.00 | 55 | 1012.1 |
| 20260503012753 | 12 | 168 | 0.0 | 0.0 | 0.00 | 0.00 | 0.00 | 52 | 1012.1 |
| 20260503012250 | 12 | 168 | 0.0 | 1.6 | 0.00 | 0.00 | 0.00 | 51 | 1012.2 |
| 20260503011747 | 12 | 154 | 0.0 | 1.6 | 0.00 | 0.00 | 0.00 | 53 | 1012.2 |
| 20260503011244 | 13 | 180 | 0.0 | 3.2 | 0.00 | 0.00 | 0.00 | 48 | 1012.4 |
| 20260503010740 | 13 | 156 | 0.0 | 1.6 | 0.00 | 0.00 | 0.00 | 47 | 1012.3 |
| 20260503010237 | 13 | 197 | 0.0 | 3.2 | 0.00 | 0.00 | 0.00 | 46 | 1012.3 |
| 20260503005734 | 13 | 170 | 1.6 | 1.6 | 0.00 | 0.00 | 0.00 | 45 | 1012.3 |
| 20260503005232 | 13 | 147 | 0.0 | 3.2 | 0.00 | 0.00 | 0.00 | 44 | 1012.4 |
| 20260503004727 | 13 | 151 | 0.0 | 1.6 | 0.00 | 0.00 | 0.00 | 44 | 1012.4 |
| 20260503004226 | 14 | 182 | 1.6 | 3.2 | 0.00 | 0.00 | 0.00 | 45 | 1012.5 |
| 20260503003723 | 14 | 117 | 0.0 | 0.0 | 0.00 | 0.00 | 0.00 | 44 | 1012.4 |
| 20260503003220 | 14 | 151 | 1.6 | 1.6 | 0.00 | 0.00 | 0.00 | 44 | 1012.5 |
| 20260503002716 | 15 | 154 | 0.0 | 3.2 | 0.00 | 0.00 | 0.00 | 43 | 1012.5 |
| 20260503002213 | 15 | 212 | 0.0 | 1.6 | 0.00 | 0.00 | 0.00 | 43 | 1012.7 |
| 20260503001709 | 15 | 186 | 0.0 | 3.2 | 0.00 | 0.00 | 0.00 | 41 | 1012.6 |
| 20260503001206 | 15 | 205 | 0.0 | 3.2 | 0.00 | 0.00 | 0.00 | 41 | 1012.6 |
| 20260503000704 | 15 | 168 | 0.0 | 1.6 | 0.00 | 0.00 | 0.00 | 41 | 1012.7 |
| 20260503000203 | 15 | 132 | 3.2 | 4.8 | 0.00 | 0.00 | 0.00 | 39 | 1012.6 |
| 20260502235658 | 15 | 174 | 1.6 | 4.8 | 0.00 | 0.00 | 0.00 | 39 | 1012.7 |
| 20260502235156 | 15 | 192 | 1.6 | 4.8 | 0.00 | 0.00 | 0.00 | 41 | 1012.7 |
| 20260502234652 | 15 | 222 | 1.6 | 8.0 | 0.00 | 0.00 | 0.00 | 39 | 1012.7 |
| 20260502234149 | 15 | 208 | 4.8 | 6.4 | 0.00 | 0.00 | 0.00 | 39 | 1013.0 |
| 20260502233645 | 15 | 97 | 3.2 | 9.7 | 0.00 | 0.00 | 0.00 | 39 | 1013.3 |
| 20260502233142 | 15 | 177 | 1.6 | 11.3 | 0.00 | 0.00 | 0.00 | 39 | 1013.2 |
| 20260502232637 | 15 | 253 | 6.4 | 8.0 | 0.00 | 0.00 | 0.00 | 38 | 1013.3 |
| 20260502232135 | 16 | 218 | 1.6 | 3.2 | 0.00 | 0.00 | 0.00 | 38 | 1013.3 |
| 20260502231626 | 16 | 132 | 0.0 | 6.4 | 0.00 | 0.00 | 0.00 | 38 | 1013.4 |
| 20260502231124 | 16 | 234 | 3.2 | 12.9 | 0.00 | 0.00 | 0.00 | 38 | 1013.4 |
| 20260502230622 | 15 | 232 | 0.0 | 11.3 | 0.00 | 0.00 | 0.00 | 38 | 1013.3 |
| 20260502230120 | 16 | 261 | 4.8 | 8.0 | 0.00 | 0.00 | 0.00 | 38 | 1013.4 |
| 20260502225615 | 15 | 200 | 3.2 | 8.0 | 0.00 | 0.00 | 0.00 | 39 | 1013.6 |
| 20260502225113 | 15 | 255 | 4.8 | 8.0 | 0.00 | 0.00 | 0.00 | 38 | 1013.6 |
| 20260502224609 | 16 | 330 | 3.2 | 8.0 | 0.00 | 0.00 | 0.00 | 38 | 1013.8 |
| 20260502224106 | 16 | 198 | 6.4 | 11.3 | 0.00 | 0.00 | 0.00 | 37 | 1013.8 |
| 20260502223604 | 16 | 296 | 4.8 | 19.3 | 0.00 | 0.00 | 0.00 | 37 | 1013.8 |
| 20260502223102 | 17 | 187 | 4.8 | 16.1 | 0.00 | 0.00 | 0.00 | 34 | 1013.7 |
| 20260502222559 | 17 | 140 | 3.2 | 17.7 | 0.00 | 0.00 | 0.00 | 36 | 1013.8 |
| 20260502222055 | 16 | 278 | 3.2 | 8.0 | 0.00 | 0.00 | 0.00 | 36 | 1013.9 |
| 20260502221551 | 16 | 359 | 3.2 | 12.9 | 0.00 | 0.00 | 0.00 | 36 | 1013.7 |
| 20260502221049 | 17 | 194 | 3.2 | 8.0 | 0.00 | 0.00 | 0.00 | 35 | 1013.8 |
| 20260502220544 | 17 | 175 | 4.8 | 11.3 | 0.00 | 0.00 | 0.00 | 35 | 1013.8 |
| 20260502220041 | 17 | 281 | 4.8 | 12.9 | 0.00 | 0.00 | 0.00 | 34 | 1013.6 |
| 20260502215538 | 17 | 281 | 3.2 | 8.0 | 0.00 | 0.00 | 0.00 | 34 | 1013.8 |
| 20260502215035 | 17 | 197 | 1.6 | 11.3 | 0.00 | 0.00 | 0.00 | 34 | 1014.1 |
| 20260502214532 | 17 | 235 | 4.8 | 11.3 | 0.00 | 0.00 | 0.00 | 34 | 1014.2 |
| 20260502214030 | 17 | 171 | 1.6 | 8.0 | 0.00 | 0.00 | 0.00 | 34 | 1014.0 |
| 20260502213526 | 17 | 199 | 3.2 | 6.4 | 0.00 | 0.00 | 0.00 | 34 | 1014.1 |
| 20260502213024 | 16 | 187 | 4.8 | 12.9 | 0.00 | 0.00 | 0.00 | 36 | 1014.3 |
| 20260502212523 | 16 | 294 | 6.4 | 9.7 | 0.00 | 0.00 | 0.00 | 35 | 1014.4 |
| 20260502212020 | 17 | 177 | 1.6 | 8.0 | 0.00 | 0.00 | 0.00 | 33 | 1014.5 |
| 20260502211515 | 17 | 209 | 3.2 | 14.5 | 0.00 | 0.00 | 0.00 | 34 | 1014.4 |
| 20260502211013 | 17 | 207 | 14.5 | 14.5 | 0.00 | 0.00 | 0.00 | 33 | 1014.6 |
| 20260502210509 | 17 | 7 | 4.8 | 9.7 | 0.00 | 0.00 | 0.00 | 33 | 1014.5 |
| 20260502210007 | 17 | 219 | 6.4 | 14.5 | 0.00 | 0.00 | 0.00 | 32 | 1014.6 |
| 20260502205503 | 17 | 218 | 6.4 | 11.3 | 0.00 | 0.00 | 0.00 | 31 | 1014.5 |
| 20260502205000 | 17 | 315 | 1.6 | 12.9 | 0.00 | 0.00 | 0.00 | 34 | 1014.8 |
| 20260502204457 | 17 | 303 | 6.4 | 11.3 | 0.00 | 0.00 | 0.00 | 33 | 1014.6 |
| 20260502203955 | 17 | 208 | 3.2 | 9.7 | 0.00 | 0.00 | 0.00 | 33 | 1015.0 |
| 20260502203452 | 17 | 257 | 3.2 | 14.5 | 0.00 | 0.00 | 0.00 | 32 | 1014.9 |
| 20260502202948 | 16 | 165 | 6.4 | 14.5 | 0.00 | 0.00 | 0.00 | 32 | 1015.2 |
| 20260502202445 | 17 | 219 | 4.8 | 8.0 | 0.00 | 0.00 | 0.00 | 34 | 1015.1 |
| 20260502201943 | 16 | 185 | 3.2 | 12.9 | 0.00 | 0.00 | 0.00 | 32 | 1015.0 |
| 20260502201439 | 16 | 311 | 4.8 | 22.5 | 0.00 | 0.00 | 0.00 | 33 | 1015.2 |
| 20260502200936 | 16 | 17 | 4.8 | 14.5 | 0.00 | 0.00 | 0.00 | 31 | 1015.3 |
| 20260502200431 | 16 | 200 | 4.8 | 14.5 | 0.00 | 0.00 | 0.00 | 33 | 1015.4 |
| 20260502195929 | 16 | 203 | 6.4 | 9.7 | 0.00 | 0.00 | 0.00 | 32 | 1015.4 |
| 20260502195426 | 15 | 188 | 4.8 | 12.9 | 0.00 | 0.00 | 0.00 | 33 | 1015.8 |
| 20260502194923 | 17 | 292 | 9.7 | 12.9 | 0.00 | 0.00 | 0.00 | 30 | 1015.7 |
| 20260502194420 | 17 | 249 | 1.6 | 8.0 | 0.00 | 0.00 | 0.00 | 30 | 1015.8 |
| 20260502193915 | 16 | 292 | 3.2 | 17.7 | 0.00 | 0.00 | 0.00 | 34 | 1015.9 |
| 20260502193413 | 16 | 95 | 3.2 | 17.7 | 0.00 | 0.00 | 0.00 | 32 | 1015.9 |
| 20260502192908 | 16 | 309 | 4.8 | 9.7 | 0.00 | 0.00 | 0.00 | 31 | 1016.0 |
| 20260502192405 | 16 | 144 | 4.8 | 11.3 | 0.00 | 0.00 | 0.00 | 34 | 1016.2 |
| 20260502191902 | 16 | 226 | 0.0 | 14.5 | 0.00 | 0.00 | 0.00 | 34 | 1016.2 |
| 20260502191400 | 16 | 167 | 4.8 | 16.1 | 0.00 | 0.00 | 0.00 | 37 | 1016.2 |
| 20260502190857 | 16 | 190 | 8.0 | 16.1 | 0.00 | 0.00 | 0.00 | 33 | 1016.3 |
| 20260502190354 | 16 | 230 | 4.8 | 11.3 | 0.00 | 0.00 | 0.00 | 34 | 1016.3 |
| 20260502185850 | 16 | 310 | 3.2 | 12.9 | 0.00 | 0.00 | 0.00 | 31 | 1016.2 |
| 20260502185346 | 15 | 264 | 4.8 | 11.3 | 0.00 | 0.00 | 0.00 | 32 | 1016.5 |
| 20260502184843 | 16 | 156 | 6.4 | 11.3 | 0.00 | 0.00 | 0.00 | 31 | 1016.4 |
| 20260502184338 | 16 | 295 | 1.6 | 11.3 | 0.00 | 0.00 | 0.00 | 31 | 1016.7 |
| 20260502183836 | 15 | 177 | 4.8 | 14.5 | 0.00 | 0.00 | 0.00 | 33 | 1016.6 |
| 20260502183332 | 15 | 3 | 3.2 | 14.5 | 0.00 | 0.00 | 0.00 | 34 | 1016.7 |
| 20260502182826 | 15 | 180 | 4.8 | 14.5 | 0.00 | 0.00 | 0.00 | 33 | 1016.8 |
| 20260502182322 | 16 | 241 | 8.0 | 14.5 | 0.00 | 0.00 | 0.00 | 33 | 1016.8 |
| 20260502181819 | 15 | 213 | 3.2 | 11.3 | 0.00 | 0.00 | 0.00 | 35 | 1017.1 |
| 20260502181318 | 15 | 24 | 6.4 | 8.0 | 0.00 | 0.00 | 0.00 | 32 | 1017.1 |
| 20260502180816 | 15 | 0 | 3.2 | 11.3 | 0.00 | 0.00 | 0.00 | 33 | 1017.0 |
| 20260502180313 | 15 | 104 | 8.0 | 24.1 | 0.00 | 0.00 | 0.00 | 32 | 1017.1 |
| 20260502170232 | 14 | 168 | 4.8 | 14.5 | 0.00 | 0.00 | 0.00 | 37 | 1017.8 |
| 20260502164218 | 14 | 193 | 1.6 | 17.7 | 0.00 | 0.00 | 0.00 | 41 | 1018.1 |
| 20260502163713 | 14 | 312 | 4.8 | 11.3 | 0.00 | 0.00 | 0.00 | 37 | 1018.0 |
| 20260502163205 | 14 | 220 | 8.0 | 12.9 | 0.00 | 0.00 | 0.00 | 36 | 1018.1 |
| 20260502162702 | 13 | 248 | 6.4 | 12.9 | 0.00 | 0.00 | 0.00 | 37 | 1018.3 |
| 20260502162159 | 13 | 321 | 3.2 | 14.5 | 0.00 | 0.00 | 0.00 | 38 | 1018.2 |
| 20260502161656 | 13 | 295 | 3.2 | 9.7 | 0.00 | 0.00 | 0.00 | 37 | 1018.2 |
| 20260502161152 | 13 | 122 | 4.8 | 11.3 | 0.00 | 0.00 | 0.00 | 35 | 1018.2 |
| 20260502160651 | 13 | 288 | 6.4 | 12.9 | 0.00 | 0.00 | 0.00 | 36 | 1018.6 |
| 20260502160150 | 13 | 339 | 6.4 | 16.1 | 0.00 | 0.00 | 0.00 | 38 | 1018.4 |
| 20260502152103 | 13 | 285 | 6.4 | 12.9 | 0.00 | 0.00 | 0.00 | 38 | 1018.9 |
| 20260502151601 | 13 | 184 | 1.6 | 4.8 | 0.00 | 0.00 | 0.00 | 44 | 1018.8 |
| 20260502151058 | 12 | 180 | 3.2 | 8.0 | 0.00 | 0.00 | 0.00 | 42 | 1018.8 |
| 20260502150555 | 12 | 215 | 3.2 | 8.0 | 0.00 | 0.00 | 0.00 | 45 | 1018.8 |
| 20260502130440 | 5 | 59 | 3.2 | 9.7 | 0.00 | 0.00 | 0.00 | 67 | 1019.3 |
| 20260502123423 | 0 | 136 | 0.0 | 3.2 | 0.00 | 0.00 | 0.00 | 90 | 1019.3 |
| 20260502122920 | 0 | 154 | 0.0 | 3.2 | 0.00 | 0.00 | 0.00 | 93 | 1019.4 |
| 20260502122416 | 0 | 137 | 0.0 | 3.2 | 0.00 | 0.00 | 0.00 | 96 | 1019.4 |
| 20260502121914 | -1 | 160 | 1.6 | 3.2 | 0.00 | 0.00 | 0.00 | 97 | 1019.4 |
| 20260502121411 | -1 | 162 | 1.6 | 1.6 | 0.00 | 0.00 | 0.00 | 98 | 1019.5 |
| 20260502120909 | -1 | 147 | 0.0 | 1.6 | 0.00 | 0.00 | 0.00 | 98 | 1019.3 |
| 20260502120405 | -2 | 133 | 0.0 | 1.6 | 0.00 | 0.00 | 0.00 | 98 | 1019.4 |
| 20260502115902 | -2 | 157 | 0.0 | 1.6 | 0.00 | 0.00 | 0.00 | 98 | 1019.4 |
| 20260502115359 | -2 | 144 | 0.0 | 1.6 | 0.00 | 0.00 | 0.00 | 98 | 1019.4 |
| 20260502114855 | -2 | 154 | 0.0 | 1.6 | 0.00 | 0.00 | 0.00 | 98 | 1019.4 |
| 20260502114352 | -2 | 175 | 0.0 | 3.2 | 0.00 | 0.00 | 0.00 | 98 | 1019.5 |
| 20260502113849 | -2 | 179 | 0.0 | 3.2 | 0.00 | 0.00 | 0.00 | 98 | 1019.3 |
| 20260502113347 | -3 | 181 | 0.0 | 3.2 | 0.00 | 0.00 | 0.00 | 98 | 1019.2 |
| 20260502112845 | -3 | 145 | 0.0 | 3.2 | 0.00 | 0.00 | 0.00 | 98 | 1019.4 |
| 20260502112342 | -3 | 142 | 1.6 | 1.6 | 0.00 | 0.00 | 0.00 | 98 | 1019.2 |
| 20260502111840 | -3 | 202 | 0.0 | 3.2 | 0.00 | 0.00 | 0.00 | 98 | 1019.3 |
| 20260502111337 | -3 | 160 | 0.0 | 3.2 | 0.00 | 0.00 | 0.00 | 98 | 1019.3 |
| 20260502110834 | -3 | 154 | 1.6 | 3.2 | 0.00 | 0.00 | 0.00 | 98 | 1019.2 |
| 20260502110332 | -3 | 150 | 1.6 | 3.2 | 0.00 | 0.00 | 0.00 | 98 | 1019.2 |
| 20260502105829 | -3 | 304 | 0.0 | 1.6 | 0.00 | 0.00 | 0.00 | 98 | 1018.9 |
| 20260502105326 | -3 | 127 | 3.2 | 4.8 | 0.00 | 0.00 | 0.00 | 98 | 1019.3 |
| 20260502104824 | -3 | 145 | 0.0 | 1.6 | 0.00 | 0.00 | 0.00 | 98 | 1019.2 |
| 20260502104321 | -3 | 166 | 0.0 | 1.6 | 0.00 | 0.00 | 0.00 | 98 | 1019.4 |
| 20260502103818 | -3 | 111 | 0.0 | 3.2 | 0.00 | 0.00 | 0.00 | 98 | 1019.3 |
| 20260502103315 | -3 | 122 | 0.0 | 3.2 | 0.00 | 0.00 | 0.00 | 98 | 1019.3 |
| 20260502102813 | -3 | 149 | 1.6 | 3.2 | 0.00 | 0.00 | 0.00 | 98 | 1019.4 |
| 20260502102309 | -3 | 129 | 0.0 | 3.2 | 0.00 | 0.00 | 0.00 | 98 | 1019.2 |
| 20260502101807 | -3 | 128 | 1.6 | 3.2 | 0.00 | 0.00 | 0.00 | 98 | 1019.3 |
| 20260502101305 | -3 | 114 | 0.0 | 1.6 | 0.00 | 0.00 | 0.00 | 98 | 1019.2 |
| 20260502100803 | -3 | 133 | 1.6 | 3.2 | 0.00 | 0.00 | 0.00 | 98 | 1019.3 |
| 20260502100302 | -3 | 149 | 1.6 | 4.8 | 0.00 | 0.00 | 0.00 | 98 | 1019.4 |
| 20260502091235 | -3 | 184 | 1.6 | 3.2 | 0.00 | 0.00 | 0.00 | 97 | 1019.5 |
| 20260502090733 | -3 | 147 | 0.0 | 1.6 | 0.00 | 0.00 | 0.00 | 97 | 1019.5 |
| 20260502090229 | -3 | 197 | 0.0 | 1.6 | 0.00 | 0.00 | 0.00 | 97 | 1019.6 |
| 20260502071130 | -2 | 166 | 0.0 | 1.6 | 0.00 | 0.00 | 0.00 | 94 | 1019.9 |
| 20260502070628 | -2 | 175 | 0.0 | 1.6 | 0.00 | 0.00 | 0.00 | 94 | 1019.8 |
| 20260502070126 | -2 | 177 | 1.6 | 1.6 | 0.00 | 0.00 | 0.00 | 94 | 1020.1 |
| 20260502065624 | -2 | 180 | 0.0 | 1.6 | 0.00 | 0.00 | 0.00 | 93 | 1020.1 |
| 20260502065121 | -2 | 157 | 0.0 | 0.0 | 0.00 | 0.00 | 0.00 | 93 | 1020.2 |
| 20260502064620 | -2 | 173 | 0.0 | 1.6 | 0.00 | 0.00 | 0.00 | 93 | 1019.9 |
| 20260502064117 | -2 | 160 | 0.0 | 1.6 | 0.00 | 0.00 | 0.00 | 93 | 1020.1 |
| 20260502063614 | -2 | 152 | 0.0 | 1.6 | 0.00 | 0.00 | 0.00 | 93 | 1020.1 |
| 20260502063112 | -2 | 147 | 0.0 | 1.6 | 0.00 | 0.00 | 0.00 | 93 | 1020.0 |
| 20260502062609 | -2 | 186 | 0.0 | 1.6 | 0.00 | 0.00 | 0.00 | 93 | 1019.9 |
| 20260502062106 | -2 | 173 | 0.0 | 1.6 | 0.00 | 0.00 | 0.00 | 92 | 1020.1 |
| 20260502061604 | -2 | 148 | 0.0 | 1.6 | 0.00 | 0.00 | 0.00 | 92 | 1020.1 |
| 20260502061101 | -2 | 147 | 0.0 | 1.6 | 0.00 | 0.00 | 0.00 | 92 | 1020.0 |
| 20260502060556 | -2 | 147 | 0.0 | 1.6 | 0.00 | 0.00 | 0.00 | 92 | 1020.1 |
| 20260502060053 | -1 | 155 | 0.0 | 1.6 | 0.00 | 0.00 | 0.00 | 92 | 1020.1 |
| 20260502055551 | -1 | 184 | 0.0 | 1.6 | 0.00 | 0.00 | 0.00 | 91 | 1020.1 |
| 20260502055049 | -1 | 193 | 0.0 | 1.6 | 0.00 | 0.00 | 0.00 | 91 | 1020.1 |
| 20260502054548 | -1 | 157 | 0.0 | 0.0 | 0.00 | 0.00 | 0.00 | 90 | 1019.9 |
| 20260502054044 | -1 | 157 | 0.0 | 1.6 | 0.00 | 0.00 | 0.00 | 90 | 1019.9 |
| 20260502053541 | -1 | 180 | 0.0 | 1.6 | 0.00 | 0.00 | 0.00 | 90 | 1019.9 |
| 20260502053039 | -1 | 135 | 0.0 | 0.0 | 0.00 | 0.00 | 0.00 | 89 | 1019.8 |
| 20260502052538 | -1 | 147 | 0.0 | 1.6 | 0.00 | 0.00 | 0.00 | 88 | 1019.8 |
| 20260502052035 | -1 | 180 | 0.0 | 0.0 | 0.00 | 0.00 | 0.00 | 88 | 1020.1 |
| 20260502051533 | 0 | 157 | 0.0 | 1.6 | 0.00 | 0.00 | 0.00 | 87 | 1020.0 |
| 20260502051031 | 0 | 120 | 0.0 | 1.6 | 0.00 | 0.00 | 0.00 | 86 | 1020.0 |